Regional Weather Roundup
Issued by NWS

Home | Current Version | Previous Version | Graphics & Text | Print | Product List | Glossary On
Versions: 1 2 3 4 5 6 7 8 9 10 11 12 13 14 15 16 17 18 19 20 21 22 23 24 25 26 27 28 29 30 31 32 33 34 35 36 37 38 39 40 41 42 43 44 45 46 47 48 49 50
000
ASUS43 KTOP 201008
RWRKS

WEATHER ROUNDUP FOR KANSAS
NATIONAL WEATHER SERVICE GOODLAND KS
500 AM CDT WED AUG 20 2014

NOTE:  "FAIR" INDICATES FEW OR NO CLOUDS BELOW 12,000 FEET WITH NO
SIGNIFICANT WEATHER AND/OR OBSTRUCTIONS TO VISIBILITY.

KSZ001>006-013>018-027>032-041>047-201100-
NORTHWEST KANSAS

CITY           SKY/WX    TMP DP  RH WIND       PRES   REMARKS
GOODLAND       CLOUDY    74  60  61 S16       29.82F
HAYS           CLEAR     73  61  64 S14       29.81S
HILL CITY      PTCLDY    74  63  68 S3        29.80S
RUSSELL        CLEAR     76  62  62 S17       29.79S
$$

KSZ061>065-074>080-084>089-201100-
SOUTHWEST KANSAS

CITY           SKY/WX    TMP DP  RH WIND       PRES   REMARKS
DODGE CITY     CLEAR     70  62  76 S9        29.85F
ELKHART          N/A     67  59  76 S10         N/A
GARDEN CITY    CLEAR     68  62  81 S9        29.84S
GREAT BEND     CLEAR     73  61  64 S13       29.82F
LIBERAL        CLEAR     72  61  68 S8        29.88S
PRATT          CLEAR     70  61  73 S10       29.85F
$$

KSZ066>073-081>083-090>101-201100-
SOUTHEAST KANSAS

CITY           SKY/WX    TMP DP  RH WIND       PRES   REMARKS
CHANUTE        CLEAR     72  69  90 S7        29.87S
COFFEYVILLE    CLEAR     75  72  90 S6        29.87S
HUTCHINSON     CLEAR     73  65  75 S8        29.84S
MEDICINE LODGE   N/A     73  64  73 SE6       29.84S
NEWTON         CLEAR     73  63  68 S12       29.88S
PARSONS        CLEAR     75  70  84 S6        29.88S
WICHITA INTL   PTCLDY    74  67  78 S10       29.84S
WICHITA JABRA  CLEAR     73  68  84 S8        29.84F
WICHITA MCCONL CLEAR     74  72  93 SE8       29.85S
WINFIELD       CLEAR     73  69  87 S8        29.86F
$$

KSZ007>012-019>026-033>040-048>060-102>105-201100-
NORTHEAST KANSAS

CITY           SKY/WX    TMP DP  RH WIND       PRES   REMARKS
CONCORDIA      CLOUDY    74  67  78 S9        29.80R
EMPORIA        CLEAR     72  68  87 S8        29.84F
LAWRENCE       MOCLDY    80  69  69 SW9       29.82S
MANHATTAN      PTCLDY    77  68  73 SW12      29.80S
MARYSVILLE     PTCLDY    77  68  73 SW12      29.79F
OLATHE IND     MOCLDY    77  69  76 SW14      29.84F
OLATHE EXE     PTCLDY    79  69  71 SW8       29.83F
SALINA         PTCLDY    76  66  71 S9        29.80F
TOPEKA BILLARD MOCLDY    79  70  74 S9        29.81F
TOPEKA FORBES  PTCLDY    75  68  78 S8        29.82F
$$



USA.gov is the U.S. government's official web portal to all federal, state and local government web resources and services.